This is the latest recevied weather packets stored in our database for station/object WS4FSC-7. If no packets are shown the sender has not sent any weather packets the latest 10 day(s).
| Time | Temp. | Humidity | Pressure | Rain* | Wind** | Luminosity | Snow |
|---|---|---|---|---|---|---|---|
| 1788094907 | 30.56° C | 80% | 1016 hPa | - | - | 282 W/m² | - |
| 1788094791 | 30.56° C | 80% | 1016 hPa | - | - | 282 W/m² | - |
| 1788094431 | 30° C | 80% | 1016 hPa | - | - | 302 W/m² | - |
| 1788093711 | 30.56° C | 79% | 1016 hPa | - | - | 309 W/m² | - |
| 1788093350 | 30° C | 80% | 1016 hPa | - | - | 273 W/m² | - |
| 1788092451 | 28.89° C | 81% | 1016 hPa | - | - | 72 W/m² | - |
| 1788092271 | 28.89° C | 80% | 1016 hPa | - | - | 54 W/m² | - |
| 1788091551 | 29.44° C | 80% | 1016 hPa | - | - | 40 W/m² | - |
| 1788090111 | 28.33° C | 83% | 1015 hPa | - | - | 29 W/m² | - |
| 1788089391 | 28.33° C | 85% | 1015 hPa | - | - | 27 W/m² | - |
| 1788088131 | 28.33° C | 84% | 1015 hPa | - | - | 9 W/m² | - |
| 1788087951 | 28.33° C | 84% | 1015 hPa | - | - | 7 W/m² | - |
| 1788087771 | 28.33° C | 84% | 1015 hPa | - | - | 5 W/m² | - |
| 1788087410 | 28.33° C | 84% | 1015 hPa | - | - | 2 W/m² | - |
| 1788086690 | 27.78° C | 85% | 1015 hPa | - | - | 0 W/m² | - |
| 1788086331 | 27.78° C | 86% | 1015 hPa | - | - | 0 W/m² | - |
| 1788086152 | 27.78° C | 86% | 1014 hPa | - | - | 0 W/m² | - |
| 1788085251 | 27.78° C | 86% | 1014 hPa | - | - | 0 W/m² | - |
| 1788084654 | 27.78° C | 85% | 1014 hPa | - | - | 0 W/m² | - |
| 1788084531 | 27.78° C | 85% | 1014 hPa | - | - | 0 W/m² | - |
| 1788083990 | 27.78° C | 84% | 1014 hPa | - | - | 0 W/m² | - |
| 1788083630 | 27.78° C | 84% | 1014 hPa | - | - | 0 W/m² | - |
| 1788081831 | 27.78° C | 85% | 1014 hPa | - | - | 0 W/m² | - |
| 1788081651 | 28.33° C | 85% | 1014 hPa | - | - | 0 W/m² | - |
| 1788081110 | 28.33° C | 83% | 1014 hPa | - | - | 0 W/m² | - |
* Rain since midnight (hover to see other rain measurements)
** Current wind speed in m/s (hover to see current wind gust speed)